Location: Croisilles
(50.1998°N, 2.8793°E)
Time: 19:46:33
(UTC+00:00)

COSMOS 2406 - Pass Details

Date: 21 January 2021
Orbit: 841 x 865 km, 71.0° (Epoch: 02 March)

Event Time Altitude Azimuth Distance (km) Brightness Sun altitude
Rises 18:55:52 0° 331° (NNW) 3,460 6.7 -23.9°
Reaches altitude 10° 18:58:22 10° 334° (NNW) 2,519 5.9 -24.3°
Maximum altitude 19:04:09 68° 58° (ENE) 930 3.1 -25.2°
Enters shadow 19:04:30 66° 82° (E) 940 3.1 -25.3°
